TimeMST,TemperatureF,Dew PointF,Humidity,Sea Level PressureIn,VisibilityMPH,Wind Direction,Wind SpeedMPH,Gust SpeedMPH,PrecipitationIn,Events,Conditions,WindDirDegrees,DateUTC
12:53 AM,27.0,21.9,81,30.24,10.0,Calm,Calm,-,N/A,,Clear,0,2013-02-14 07:53:00
1:53 AM,25.0,21.9,88,30.24,10.0,Calm,Calm,-,N/A,,Clear,0,2013-02-14 08:53:00
2:53 AM,24.1,21.0,88,30.24,10.0,Calm,Calm,-,N/A,,Clear,0,2013-02-14 09:53:00
3:53 AM,26.1,23.0,88,30.23,10.0,Calm,Calm,-,N/A,,Mostly Cloudy,0,2013-02-14 10:53:00
4:53 AM,26.6,23.0,86,30.17,10.0,Calm,Calm,-,N/A,,Mostly Cloudy,0,2013-02-14 11:53:00
5:53 AM,25.0,21.0,85,30.26,10.0,Calm,Calm,-,N/A,,Clear,0,2013-02-14 12:53:00
6:53 AM,23.0,21.0,92,30.28,10.0,WSW,3.5,-,N/A,,Clear,240,2013-02-14 13:53:00
7:53 AM,25.0,21.0,85,30.30,10.0,Calm,Calm,-,N/A,,Clear,0,2013-02-14 14:53:00
8:53 AM,28.0,24.1,85,30.31,10.0,Calm,Calm,-,N/A,,Clear,0,2013-02-14 15:53:00
9:53 AM,33.1,24.1,70,30.30,10.0,East,4.6,-,N/A,,Clear,90,2013-02-14 16:53:00
10:53 AM,37.0,23.0,57,30.31,10.0,Calm,Calm,-,N/A,,Clear,0,2013-02-14 17:53:00
11:53 AM,39.0,24.1,55,30.30,10.0,North,4.6,-,N/A,,Clear,350,2013-02-14 18:53:00
12:53 PM,39.9,25.0,55,30.27,10.0,Calm,Calm,-,N/A,,Clear,0,2013-02-14 19:53:00
1:53 PM,42.1,23.0,47,30.26,10.0,Calm,Calm,-,N/A,,Clear,0,2013-02-14 20:53:00
2:53 PM,44.1,27.0,51,30.26,10.0,NW,6.9,-,N/A,,Clear,320,2013-02-14 21:53:00
3:53 PM,45.0,25.0,46,30.24,10.0,NNW,6.9,-,N/A,,Clear,330,2013-02-14 22:53:00
4:53 PM,45.0,21.0,39,30.25,10.0,ESE,3.5,-,N/A,,Clear,120,2013-02-14 23:53:00
5:53 PM,42.1,26.1,53,30.26,10.0,SSE,3.5,-,N/A,,Clear,160,2013-02-15 00:53:00
6:53 PM,34.0,28.0,79,30.30,10.0,Calm,Calm,-,N/A,,Clear,0,2013-02-15 01:53:00
7:53 PM,34.0,27.0,75,30.30,10.0,NW,6.9,-,N/A,,Clear,320,2013-02-15 02:53:00
8:53 PM,30.9,26.1,82,30.31,10.0,West,3.5,-,N/A,,Clear,260,2013-02-15 03:53:00
9:53 PM,32.0,26.1,79,30.31,10.0,West,9.2,-,N/A,,Clear,270,2013-02-15 04:53:00
10:53 PM,30.0,24.1,79,30.32,10.0,Variable,3.5,-,N/A,,Clear,0,2013-02-15 05:53:00
11:53 PM,28.9,23.0,78,30.33,10.0,Calm,Calm,-,N/A,,Clear,0,2013-02-15 06:53:00